SCP
-0 -0 -0 -0 0 0 0 0 0 0 0 0 0 -0 -0 -0 -0 0 0 0 0 0 0 0 0 0 0 0 0 0 0 0 0 0 0 0 0 0 0 0 0 0 0
-0 -0 -0 -0 -0 0 0 0 0 0 0 0 -0 -0 -0 -0 -0 -0 0 0 0 0 0 0 0 0 0 0 0 0 0 0 0 0 0 -0 0 0 0 0 0 0 0
-0 -0 -0 -0 -0 -0 0 0 0 0 0 -0 -0 -0 -0 -0 -0 -0 -0 -0 0 0 0 0 0 0 0 0 0 -0 -0 -0 -0 -0 -0 -0 -0 0 0 0 0 0 0
-0 -0 -0 -0 -0 -0 -0 -0 -0 -0 -0 -0 -0 -0 -0 -0 -0 -0 -0 -0 -0 -0 -0 0 0 -0 -0 -0 -0 -0 -0 -0 -0 -0 -0 -0 -0 0 0 0 0 0 0
-0 -0 -0 -0 -0 -0 -0 -0 -0 -0 -0 -0 -0 -0 -0 -0 -0 -0 -0 -0 -0 -0 -0 -0 -0 -0 -0 -0 -0 -0 -0 -0 -0 -0 -0 -0 -0 0 0 0 0 0 0
-0 -0 -0 -0 -0 -0 -0 -0 -0 -0 -0 -0 -0 -0 -0 -0 -0 -0 -0 -0 -0 -0 -0 -0 -0 -0 -0 -0 -0 -0 -0 -0 -0 -0 -0 -0 0 0 0 0 0 0 0
0 -0 -0 -0 -0 -0 -0 -0 -0 -0 -0 -0 -0 -0 -0 -0 -0 -0 -0 -0 -0 -0 -0 -0 -0 -0 -0 -0 -0 -0 -0 -0 -0 -0 0 0 0 0 0 0 0 0 0
0 0 0 -0 -0 -0 -0 -0 -0 -0 -0 -0 -0 -0 -0 -0 -0 -0 -0 -0 -0 -0 -0 -0 -0 -0 -0 -0 0 0 -0 -0 -0 0 0 0 0 0 0 0 0 0 0
0 0 0 0 0 -0 -0 -0 -0 -0 -0 -0 -0 -0 -0 -0 -0 -0 -0 -0 -0 -0 0 0 0 0 0 0 0 0 0 0 0 0 0 0 0 0 0 0 0 0 0
1 0 0 0 0 0 0 0 -0 -0 -0 -0 -0 -0 -0 -0 -0 -0 -0 -0 0 0 0 0 0 0 0 0 0 0 0 0 0 0 0 0 0 0 0 0 0 0 0
1 1 1 0 0 0 0 0 0 0 0 -0 0 0 -0 -0 -0 -0 0 0 0 0 0 0 0 0 0 0 0 0 0 0 0 0 0 0 0 0 0 0 0 0 0
1 1 1 1 1 0 0 0 0 0 0 0 0 0 0 -0 -0 0 0 0 0 0 0 0 0 0 0 0 0 0 0 0 0 0 0 0 0 0 0 0 0 0 0
1 1 1 1 1 1 0 0 0 0 0 0 0 0 0 0 0 0 0 0 0 0 0 0 0 0 0 0 0 0 0 0 0 0 0 0 0 0 0 0 0 0 0
1 1 1 1 1 1 1 0 0 0 0 0 0 0 0 0 0 0 0 0 0 0 0 0 0 0 0 0 0 0 0 0 0 0 0 0 0 0 0 0 0 0 0
1 1 1 1 1 1 1 0 0 0 0 0 0 0 0 0 0 0 0 0 0 0 0 0 0 0 0 0 0 0 0 0 0 0 0 0 0 0 0 0 0 0 0
1 1 1 1 1 1 1 1 0 0 0 0 0 0 0 0 0 0 0 0 0 0 0 0 0 0 0 0 0 0 0 0 0 0 0 0 0 0 0 0 0 0 0
1 1 1 1 1 1 1 1 0 0 0 0 0 0 0 0 0 0 0 0 0 0 0 0 0 0 0 0 0 0 0 0 0 0 0 0 0 0 0 0 0 0 0
1 1 1 1 1 1 1 1 0 0 0 0 0 0 0 0 0 0 0 0 0 0 0 0 0 0 0 0 0 0 0 0 0 0 0 0 0 0 0 0 0 0 0
1 1 1 1 1 1 1 1 1 0 0 0 0 0 0 0 0 0 0 0 0 0 0 0 0 0 0 0 0 0 0 0 0 0 0 0 0 0 0 0 0 0 0
0 0 0 0 0 1 1 1 1 0 0 0 0 0 0 0 0 0 0 0 0 0 0 0 0 0 0 0 0 0 0 0 0 0 0 0 0 0 0 0 0 0 0
0 0 0 0 0 0 1 1 1 1 1 0 0 0 0 0 0 0 0 0 0 0 0 0 0 0 0 0 0 0 0 0 0 0 0 0 0 0 0 0 0 0 0
0 0 0 0 0 0 0 1 1 1 1 0 0 0 0 0 0 0 0 0 0 0 0 0 0 0 0 0 0 0 0 0 0 0 0 0 0 0 0 0 0 0 0
0 0 0 0 0 0 0 0 0 0 0 0 0 0 0 0 0 0 0 0 0 0 0 0 0 0 0 0 0 0 0 0 0 0 0 0 0 0 0 0 0 0 0
0 0 0 0 0 0 0 0 0 0 0 0 0 0 0 0 0 0 0 0 0 0 0 0 0 0 0 0 0 0 0 0 0 0 0 0 0 0 0 0 0 0 0
0 0 0 0 0 0 0 0 0 0 0 0 0 0 0 0 0 0 0 0 0 0 0 0 0 0 0 0 0 0 0 0 0 0 0 0 0 0 0 0 0 0 0
0 0 0 0 0 0 0 0 0 0 0 0 0 0 0 0 0 0 0 0 0 0 0 0 0 0 0 0 0 0 0 0 0 0 0 0 0 0 0 0 0 0 0
Wind_Speed
12 15 18 16 16 15 14 13 13 12 11 11 11 11 11 12 12 13 13 13 13 14 15 16 17 16 16 16 15 15 14 14 14 13 12 12 12 11 11 8 6 10 11
16 17 17 15 15 15 14 13 13 12 11 10 10 10 11 12 12 13 13 13 14 14 15 16 16 16 15 15 14 14 13 13 12 11 7 8 10 10 11 10 11 8 9
17 17 17 14 15 14 14 13 12 11 10 10 10 10 11 12 12 13 13 13 14 14 15 15 15 14 14 13 12 12 12 11 10 6 1 7 10 10 10 9 9 9 8
17 16 16 15 15 15 14 13 12 11 10 9 9 10 11 12 13 13 13 13 14 14 14 14 14 13 12 11 11 11 11 10 7 3 5 8 8 10 10 10 9 9 9
16 14 15 15 15 15 15 13 12 11 10 9 9 10 11 12 13 13 13 13 13 13 13 12 12 11 11 11 11 10 10 8 3 4 8 7 8 10 11 11 11 11 10
16 14 16 14 15 15 14 13 12 11 9 9 9 10 11 12 13 13 12 12 12 11 11 11 11 10 10 10 10 9 9 5 2 7 7 7 8 9 10 10 10 10 10
14 13 16 14 15 15 14 13 12 10 10 9 9 10 11 12 12 12 11 11 10 10 10 10 10 9 9 9 9 8 7 3 5 6 6 7 8 9 9 9 9 9 9
13 13 15 15 14 14 13 12 11 10 9 9 9 10 11 11 12 11 10 9 9 9 8 8 8 8 8 8 7 7 5 2 4 5 5 6 7 7 7 8 8 8 9
12 12 13 14 14 13 12 11 10 9 8 8 8 9 10 10 10 9 8 8 7 7 7 6 6 6 6 6 6 5 4 2 2 3 3 4 5 5 6 6 6 7 7
11 11 12 12 12 12 11 10 9 8 7 7 8 9 10 10 9 8 6 6 6 6 5 5 5 5 5 4 4 4 3 4 1 1 1 3 3 3 4 4 5 5 6
10 10 10 11 10 10 9 10 9 8 7 8 8 9 7 7 7 6 5 5 4 4 4 3 3 4 4 4 3 2 4 3 1 2 1 3 2 1 1 2 2 3 4
12 11 9 10 10 9 7 8 7 7 7 7 7 8 5 4 3 2 6 3 2 3 3 2 2 4 4 3 4 4 3 3 3 2 1 1 4 4 2 1 1 0 1
11 10 9 9 9 9 6 6 4 4 5 6 7 7 5 4 3 3 3 4 5 5 4 4 5 3 3 2 3 3 3 4 3 3 2 4 7 7 6 4 4 3 2
10 11 10 9 9 9 7 6 5 4 4 4 6 7 5 3 4 3 3 3 4 3 4 4 3 4 4 5 5 5 5 4 4 4 3 4 9 10 9 8 7 6 5
9 10 10 9 9 8 7 5 5 5 5 5 5 6 6 4 4 4 4 4 4 4 4 4 5 5 5 5 5 6 7 7 6 6 4 7 10 12 12 11 10 10 9
9 10 9 10 9 8 7 6 6 5 5 5 5 6 7 5 4 4 4 4 5 5 5 5 6 5 5 5 6 7 8 8 7 8 7 6 11 13 14 14 14 13 12
10 9 9 9 9 9 9 8 6 5 5 5 5 6 7 6 6 5 5 5 5 5 6 6 7 6 6 6 8 8 7 8 8 9 8 7 7 11 15 17 17 16 15
9 9 9 8 10 10 9 8 6 6 6 5 5 5 7 8 7 6 5 6 6 5 5 6 6 6 6 6 7 6 6 6 9 9 8 8 7 7 10 16 18 18 17
8 9 9 10 10 10 9 7 7 6 6 5 5 5 6 8 8 7 6 6 7 6 6 6 6 6 7 7 7 6 7 7 8 8 10 10 9 9 8 8 13 15 16
7 8 8 9 9 8 7 6 5 6 5 5 5 5 7 6 8 7 6 8 7 6 6 7 8 7 7 6 6 7 8 8 8 8 9 8 8 9 9 9 7 9 15
6 7 8 8 8 7 5 5 5 5 5 5 4 6 6 6 6 7 6 7 6 7 8 9 7 8 7 5 4 6 7 9 9 7 7 7 7 7 7 8 7 6 6
6 7 7 7 7 7 5 4 3 3 3 3 3 4 4 5 6 5 7 6 6 6 8 8 8 6 5 5 5 5 5 6 7 6 5 5 6 5 5 6 6 6 6
6 6 5 6 6 6 6 4 3 3 2 3 4 3 2 3 4 5 6 6 6 6 7 8 7 8 7 6 6 6 5 5 3 3 5 4 4 4 4 4 5 5 6
5 5 5 5 5 5 6 6 7 5 5 4 2 2 2 2 2 3 4 5 6 5 7 7 7 7 8 7 6 7 8 6 5 4 3 4 3 4 4 3 4 4 4
6 6 5 5 5 5 5 5 5 4 3 2 2 2 2 1 0 2 3 3 4 4 6 7 7 7 6 8 6 5 7 6 7 7 6 5 4 3 3 3 3 3 3
7 6 6 6 6 5 4 4 4 4 3 3 3 2 2 1 0 1 2 2 3 4 5 5 6 7 7 8 7 6 6 6 6 6 8 6 4 2 1 1 2 3 3
Wind_Direction
159 155 146 149 147 143 138 131 124 117 113 112 112 110 107 102 95 90 87 85 86 88 90 90 89 88 86 84 82 78 74 71 67 63 62 61 62 68 67 55 54 73 63
152 153 144 149 148 144 139 130 122 117 115 115 115 114 110 105 99 94 91 89 90 92 93 92 90 88 86 84 82 80 77 72 67 61 59 83 67 63 62 52 43 58 57
151 151 149 148 146 143 136 130 124 120 118 118 119 118 114 109 103 97 94 92 92 93 93 91 88 86 85 84 83 81 77 72 65 52 24 81 79 64 60 55 53 54 51
151 153 154 144 145 141 137 132 127 124 121 122 123 121 117 113 107 101 97 94 94 94 93 91 87 84 82 82 82 80 78 72 60 353 69 67 71 63 58 55 55 53 52
151 153 141 143 143 141 137 133 130 126 123 126 128 126 120 115 110 104 100 98 97 97 96 92 87 83 82 81 82 82 80 75 64 64 70 66 67 60 56 52 51 53 52
151 151 141 143 141 139 137 135 133 130 128 129 130 129 123 117 111 105 103 102 101 101 100 95 87 82 82 82 83 85 82 69 91 71 67 62 64 62 54 47 44 43 42
151 150 146 143 140 140 139 138 137 133 131 133 136 133 128 119 112 109 107 107 107 106 104 98 90 83 82 84 85 87 84 34 62 73 65 63 58 53 50 45 41 40 40
151 150 147 142 141 141 141 141 140 137 134 136 141 134 128 122 116 114 113 113 112 110 107 103 96 89 86 89 91 93 87 356 79 69 62 65 56 46 48 45 42 39 38
154 154 152 153 148 143 141 141 141 139 134 130 132 129 122 119 121 120 120 119 115 110 107 106 103 98 94 95 101 101 92 351 358 64 54 56 48 43 51 44 38 36 35
161 161 158 159 157 155 151 140 137 135 127 118 118 115 118 123 124 124 136 118 117 114 110 108 107 103 98 98 108 119 131 241 351 56 34 67 33 32 53 43 35 34 35
168 166 164 160 158 159 154 146 148 141 130 135 129 122 146 159 152 155 117 105 115 121 122 122 118 111 121 123 114 144 217 262 299 305 319 61 308 310 64 56 36 31 35
174 171 167 164 162 160 151 160 164 161 162 177 162 164 177 169 156 154 123 125 124 130 151 146 132 163 221 198 161 207 245 266 274 270 275 168 266 265 245 215 230 346 20
179 173 173 170 170 167 162 167 168 170 170 177 176 177 180 178 174 192 184 175 191 197 207 178 207 222 243 259 264 252 272 276 272 272 239 205 255 260 253 233 226 236 239
187 183 180 177 178 179 174 175 179 182 181 183 186 191 193 198 207 209 219 214 219 217 226 236 247 239 246 246 253 262 256 257 264 270 259 212 249 256 257 249 232 231 235
199 194 189 186 186 184 184 183 191 195 195 191 192 200 207 211 217 217 226 225 231 235 232 240 247 250 255 258 257 261 263 259 260 258 248 217 238 250 255 256 245 234 233
209 206 197 195 196 193 194 195 199 204 202 206 202 208 212 221 226 229 233 232 236 235 242 247 252 258 260 261 265 264 265 265 260 258 261 234 223 237 246 249 249 244 237
212 211 204 200 201 203 205 205 209 208 208 212 214 216 216 223 229 232 242 240 240 239 243 249 256 259 263 263 263 263 264 265 264 262 257 258 244 226 234 243 246 246 242
209 209 205 199 204 208 210 209 213 215 214 218 220 222 224 227 230 235 239 244 246 246 245 248 256 255 254 255 261 263 261 260 264 265 262 253 254 252 233 233 242 247 246
207 205 205 203 205 206 210 212 218 219 220 223 222 226 227 231 232 234 241 248 248 246 246 246 250 251 259 260 264 271 271 266 266 263 260 258 252 251 257 235 231 243 249
204 202 204 204 208 205 203 209 214 221 224 226 225 227 232 233 235 237 243 249 251 247 248 246 248 249 258 270 275 273 272 268 263 260 262 261 254 252 255 260 248 237 237
195 194 198 202 202 198 194 201 208 217 218 220 227 233 237 241 241 240 244 249 246 247 252 254 252 254 251 249 256 266 262 257 258 257 257 262 260 258 258 258 258 262 248
191 189 191 196 196 196 199 202 213 212 217 221 219 227 239 248 249 246 246 250 249 251 254 254 249 249 251 230 237 265 274 265 239 241 248 253 266 266 265 266 265 265 268
191 185 184 185 187 190 188 183 180 186 196 201 208 217 241 256 256 253 255 256 254 249 253 256 249 245 252 243 232 244 261 269 283 224 230 243 256 264 270 277 277 276 275
180 169 174 172 171 176 182 191 200 209 217 214 214 213 227 253 270 276 271 268 266 261 260 263 258 253 253 252 237 235 250 273 272 271 232 235 246 263 275 279 283 285 287
166 162 159 158 153 157 170 179 194 205 210 194 203 215 220 206 303 320 299 284 277 273 271 270 266 258 252 255 250 239 240 244 245 257 267 252 237 247 277 295 302 310 320
163 159 158 153 140 136 141 155 178 188 193 200 213 222 223 214 216 354 328 304 294 288 282 277 270 263 258 257 257 250 246 243 235 239 254 257 253 248 268 310 318 332 343